Location: Unspecified
(0.0000°N, 0.0000°E)
Time: 17:32:53
(UTC+00:00)

Vanguard 3 - Pass Details

Date: 08 February 2023
Orbit: 509 x 3249 km, 33.3° (Epoch: 20 March)

Event Time Altitude Azimuth Distance (km) Brightness Sun altitude
Rises 03:35:48 0° 284° (WNW) 7,169 - -38.0°
Reaches altitude 10° 03:41:19 10° 276° (W) 6,186 - -36.7°
Exits shadow 03:53:29 33° 242° (WSW) 4,310 10.4 -33.8°
Maximum altitude 03:58:19 37° 216° (SW) 3,895 10.3 -32.6°
Drops below altitude 10° 04:11:10 10° 153° (SSE) 4,668 11.5 -29.6°
Sets 04:14:42 0° 144° (SE) 5,307 12.1 -28.7°
